Terminal Aerodrome Forecast
Issued by NWS Cleveland, OH

Home | Current Version | Previous Version | Graphics & Text | Print | Product List | Glossary Off
Versions: 1 2 3 4 5 6 7 8 9 10 11 12 13 14 15 16 17 18

000
FTUS41 KCLE 131600 AAB
TAFYNG
TAF AMD
KYNG 131618Z 1316/1412 23012KT P6SM VCSH SCT025 OVC060
      TEMPO 1316/1318 3SM TSRA BR BKN025CB OVC035
     FM131900 26012G20KT P6SM VCTS BKN035CB
     FM132300 24009KT P6SM BKN035
     FM140200 22006KT P6SM SCT035
     FM140400 21004KT 4SM BR SCT200=

USA.gov is the U.S. government's official web portal to all federal, state and local government web resources and services.